{"data":{"norad_id":62886,"epoch":"2026-09-20T21:55:04.142496Z","epoch_age_seconds":132444,"freshness":"FRESH","line1":"1 62886U 25024H   26263.91324239  .00126167  00000+0  96715-3 0  9998","line2":"2 62886  43.0007  84.4022 0000644   4.8689 355.2185 15.70956555 94173","mean_motion":15.70956555,"eccentricity":6.44e-5,"inclination_deg":43.0007,"raan_deg":84.4022,"arg_perigee_deg":4.8689,"mean_anomaly_deg":355.2185,"bstar":0.00096715,"rev_number":9417,"period_min":91.663897096123,"perigee_km":355.72825731011,"apogee_km":356.59563501437,"semimajor_km":6734.2989461622,"source":"CELESTRAK","updated_at":"2026-09-22T09:00:49.703180Z"}}